Location: Skalnate Pleso
(49.1889°N, 20.2450°E)
Time: 17:47:39
(UTC+01:00)

ATLAS 2AS CENTAUR R/B - Pass Details

Date: 19 November 2019
Orbit: 926 x 1286 km, 63.7° (Epoch: 02 December)

Event Time Altitude Azimuth Distance (km) Brightness Sun altitude
Exits shadow 03:06:14 49° 19° (NNE) 1,515 3.5 -36.9°
Maximum altitude 03:06:53 51° 35° (NE) 1,487 3.5 -36.8°
Drops below altitude 10° 03:13:56 10° 110° (ESE) 3,012 5.6 -35.7°
Sets 03:16:37 0° 116° (ESE) 3,916 6.3 -35.2°
